CW9009 Weather Reports


Display with metric or nautical units.
time (UTC)temp
F
wind
direction
speed
MPH
gust
MPH
rain 1hr
in
rain 24hr
in
rain mn
in
humidity
%
barometer
mb
20260507195425 76 0 0.0 0.0 0.00 0.00 0.00 28 1013.4
20260507194425 76 280 1.0 2.0 0.00 0.00 0.00 28 1013.5
20260507193426 75 64 0.0 1.0 0.00 0.00 0.00 28 1013.7
20260507192427 75 281 2.0 2.0 0.00 0.00 0.00 31 1013.8
20260507191426 74 277 0.0 1.0 0.00 0.00 0.00 31 1013.9
20260507190426 74 321 1.0 2.0 0.00 0.00 0.00 31 1014.0
20260507185427 74 272 1.0 2.0 0.00 0.00 0.00 32 1014.0
20260507184447 73 312 1.0 2.0 0.00 0.00 0.00 34 1014.3
20260507183427 72 243 1.0 1.0 0.00 0.00 0.00 34 1014.4
20260507182447 72 272 0.0 1.0 0.00 0.00 0.00 34 1014.6
20260507181427 72 259 1.0 1.0 0.00 0.00 0.00 34 1014.6
20260507180428 71 261 1.0 2.0 0.00 0.00 0.00 36 1014.7
20260507175428 71 280 1.0 1.0 0.00 0.00 0.00 36 1014.7
20260507174428 70 262 2.0 3.0 0.00 0.00 0.00 37 1014.8
20260507173428 70 0 0.0 0.0 0.00 0.00 0.00 38 1014.9
20260507172428 69 295 1.0 1.0 0.00 0.00 0.00 43 1014.9
20260507171429 68 252 1.0 2.0 0.00 0.00 0.00 43 1015.0
20260507170429 68 216 1.0 2.0 0.00 0.00 0.00 42 1015.1
20260507165429 67 316 0.0 1.0 0.00 0.00 0.00 44 1015.1
20260507164428 66 266 1.0 2.0 0.00 0.00 0.00 46 1015.3
20260507163429 65 249 1.0 1.0 0.00 0.00 0.00 44 1015.2
20260507162430 65 224 1.0 2.0 0.00 0.00 0.00 47 1015.3
20260507161429 64 116 0.0 1.0 0.00 0.00 0.00 49 1015.3
20260507160429 64 289 0.0 1.0 0.00 0.00 0.00 49 1015.3
20260507155430 63 244 1.0 1.0 0.00 0.00 0.00 49 1015.4
20260507154430 62 276 1.0 2.0 0.00 0.00 0.00 50 1015.4
20260507153430 62 0 0.0 0.0 0.00 0.00 0.00 53 1015.4
20260507152450 61 219 0.0 1.0 0.00 0.00 0.00 55 1015.7
20260507151430 59 294 0.0 1.0 0.00 0.00 0.00 58 1015.7
20260507150430 59 0.0 0.0 0.00 0.00 0.00 61 1015.7
20260507145430 58 0 0.0 0.0 0.00 0.00 0.00 62 1015.7
20260507144431 58 283 0.0 1.0 0.00 0.00 0.00 64 1015.6
20260507143431 57 0 0.0 0.0 0.00 0.00 0.00 64 1015.4
20260507142416 57 94 1.0 1.0 0.00 0.00 0.00 65 1015.6
20260507141416 56 106 0.0 1.0 0.00 0.00 0.00 66 1015.4
20260507140416 56 0.0 0.0 0.00 0.00 0.00 65 1015.3
20260507135432 56 105 2.0 2.0 0.00 0.00 0.00 62 1015.2
20260507134432 55 0.0 0.0 0.00 0.00 0.00 64 1015.1
20260507133417 55 113 1.0 1.0 0.00 0.00 0.00 65 1014.9
20260507132418 55 102 1.0 1.0 0.00 0.00 0.00 65 1014.9
20260507131418 55 86 1.0 1.0 0.00 0.00 0.00 64 1014.8
20260507130417 55 117 1.0 1.0 0.00 0.00 0.00 65 1014.8
20260507125418 55 36 0.0 0.0 0.00 0.00 0.00 65 1014.7
20260507124438 55 46 1.0 1.0 0.00 0.00 0.00 65 1014.6
20260507123418 54 36 1.0 1.0 0.00 0.00 0.00 66 1014.6
20260507122439 54 192 1.0 1.0 0.00 0.00 0.00 68 1014.6
20260507121419 54 142 1.0 1.0 0.00 0.00 0.00 69 1014.5
20260507120439 54 162 1.0 1.0 0.00 0.00 0.00 71 1014.5
20260507115439 54 108 1.0 1.0 0.00 0.00 0.00 71 1014.5
20260507114419 55 106 2.0 2.0 0.00 0.00 0.00 71 1014.6
20260507113419 55 105 1.0 1.0 0.00 0.00 0.00 71 1014.5
20260507112459 55 78 0.0 0.0 0.00 0.00 0.00 71 1014.5
20260507111419 56 0 0.0 0.0 0.00 0.00 0.00 69 1014.5
20260507110440 56 107 1.0 1.0 0.00 0.00 0.00 69 1014.5
20260507105420 56 111 1.0 2.0 0.00 0.00 0.00 69 1014.4
20260507104420 57 111 1.0 1.0 0.00 0.00 0.00 69 1014.3
20260507103420 57 133 1.0 1.0 0.00 0.00 0.00 69 1014.4
20260507102420 57 104 1.0 2.0 0.00 0.00 0.00 68 1014.1
20260507101420 58 110 2.0 2.0 0.00 0.00 0.00 66 1014.0
20260507100421 58 78 0.0 1.0 0.00 0.00 0.00 64 1013.9
20260507095421 58 0 0.0 0.0 0.00 0.00 0.00 64 1013.9
20260507094421 59 80 1.0 1.0 0.00 0.00 0.00 64 1013.8
20260507093421 60 0.0 0.0 0.00 0.00 0.00 62 1013.8
20260507092421 60 83 1.0 1.0 0.00 0.00 0.00 61 1013.8
20260507091422 60 155 1.0 1.0 0.00 0.00 0.00 61 1013.7
20260507090421 60 0.0 0.0 0.00 0.00 0.00 61 1013.8
20260507085422 61 270 1.0 1.0 0.00 0.00 0.00 59 1013.7
20260507084422 61 0.0 0.0 0.00 0.00 0.00 59 1013.7
20260507083422 61 0 0.0 0.0 0.00 0.00 0.00 58 1013.5
20260507082442 62 141 0.0 1.0 0.00 0.00 0.00 58 1013.5
20260507081423 62 262 0.0 1.0 0.00 0.00 0.00 56 1013.6
20260507080423 63 0.0 0.0 0.00 0.00 0.00 56 1013.5
20260507075423 63 0.0 0.0 0.00 0.00 0.00 55 1013.5
20260507074423 63 0 0.0 0.0 0.00 0.00 0.00 53 1013.4
20260507073423 63 74 0.0 1.0 0.00 0.00 0.00 53 1013.4
20260507072443 64 0.0 0.0 0.00 0.00 0.00 52 1013.4
20260507071423 64 0.0 0.0 0.00 0.00 0.00 52 1013.4
20260507070424 65 0.0 0.0 0.00 0.00 0.00 52 1013.4
20260507065424 65 0.0 0.0 0.00 0.00 0.00 49 1013.4
20260507064444 65 0.0 0.0 0.00 0.00 0.00 50 1013.4
20260507063424 66 204 0.0 0.0 0.00 0.00 0.00 50 1013.3
20260507062425 66 0.0 0.0 0.00 0.00 0.00 49 1013.2
20260507061424 66 0.0 0.0 0.00 0.00 0.00 49 1013.2
20260507060425 67 0.0 0.0 0.00 0.00 0.00 49 1013.3
20260507055425 67 0.0 0.0 0.00 0.00 0.00 47 1013.1
20260507054416 67 0.0 0.0 0.00 0.00 0.00 47 1013.2
20260507053416 68 104 0.0 0.0 0.00 0.00 0.00 46 1013.3
20260507052456 68 0.0 0.0 0.00 0.00 0.00 46 1013.3
20260507051417 68 0.0 0.0 0.00 0.00 0.00 46 1013.2
20260507050417 69 0.0 0.0 0.00 0.00 0.00 46 1013.1
20260507045426 69 0.0 0.0 0.00 0.00 0.00 44 1012.8
20260507044426 69 0.0 0.0 0.00 0.00 0.00 44 1012.6
20260507043426 69 0.0 0.0 0.00 0.00 0.00 44 1012.5
20260507042426 70 0.0 0.0 0.00 0.00 0.00 43 1012.4
20260507041418 71 0.0 0.0 0.00 0.00 0.00 42 1012.4
20260507040418 71 0.0 0.0 0.00 0.00 0.00 40 1012.3
20260507035418 72 0 0.0 0.0 0.00 0.00 0.00 38 1012.3
20260507034418 72 0.0 0.0 0.00 0.00 0.00 37 1012.2
20260507033418 73 199 0.0 1.0 0.00 0.00 0.00 37 1012.1
20260507032420 74 0.0 0.0 0.00 0.00 0.00 37 1012.1
20260507031439 75 0.0 0.0 0.00 0.00 0.00 36 1011.9
20260507030419 75 0.0 0.0 0.00 0.00 0.00 34 1011.9
20260507025419 76 0.0 0.0 0.00 0.00 0.00 32 1011.8
20260507024419 76 0.0 0.0 0.00 0.00 0.00 31 1011.8
20260507023420 77 259 0.0 1.0 0.00 0.00 0.00 30 1011.8
20260507022440 78 0.0 0.0 0.00 0.00 0.00 30 1012.0
20260507021420 78 260 0.0 1.0 0.00 0.00 0.00 28 1012.0
20260507020420 79 0.0 0.0 0.00 0.00 0.00 26 1012.1
20260507015420 79 277 0.0 1.0 0.00 0.00 0.00 26 1012.1
20260507014421 80 0.0 0.0 0.00 0.00 0.00 25 1012.2
20260507013421 80 272 0.0 1.0 0.00 0.00 0.00 25 1012.1
20260507012421 81 294 0.0 1.0 0.00 0.00 0.00 22 1012.3
20260507011421 81 0 0.0 0.0 0.00 0.00 0.00 24 1012.3
20260507010421 82 298 0.0 1.0 0.00 0.00 0.00 22 1012.4
20260507005421 82 126 1.0 1.0 0.00 0.00 0.00 22 1012.5
20260507004502 83 259 1.0 1.0 0.00 0.00 0.00 20 1012.7
20260507003441 84 306 1.0 2.0 0.00 0.00 0.00 20 1012.6
20260507002422 83 161 1.0 1.0 0.00 0.00 0.00 20 1012.8
20260507001422 83 295 1.0 1.0 0.00 0.00 0.00 22 1012.7
20260507000442 83 293 1.0 1.0 0.00 0.00 0.00 22 1012.7
20260506235422 82 221 1.0 1.0 0.00 0.00 0.00 20 1012.8
20260506234422 83 126 1.0 3.0 0.00 0.00 0.00 22 1013.1
20260506233423 82 320 0.0 0.0 0.00 0.00 0.00 20 1013.2
20260506232417 82 290 1.0 1.0 0.00 0.00 0.00 22 1013.4
20260506231417 82 269 1.0 1.0 0.00 0.00 0.00 22 1013.4
20260506230417 82 265 1.0 1.0 0.00 0.00 0.00 24 1013.7
20260506225417 82 239 0.0 1.0 0.00 0.00 0.00 22 1013.9
20260506224417 81 282 1.0 2.0 0.00 0.00 0.00 22 1014.3
20260506223417 81 266 0.0 1.0 0.00 0.00 0.00 22 1014.5
20260506222424 80 283 0.0 1.0 0.00 0.00 0.00 22 1014.6
20260506221438 80 230 1.0 2.0 0.00 0.00 0.00 22 1014.8
20260506220418 80 286 0.0 1.0 0.00 0.00 0.00 20 1015.0
20260506215419 80 355 0.0 1.0 0.00 0.00 0.00 24 1015.2
20260506214418 78 266 0.0 1.0 0.00 0.00 0.00 20 1015.4
20260506213419 78 269 1.0 1.0 0.00 0.00 0.00 24 1015.7
20260506212419 77 255 1.0 2.0 0.00 0.00 0.00 24 1015.8
20260506211419 77 275 2.0 2.0 0.00 0.00 0.00 25 1015.9
20260506210420 76 268 0.0 1.0 0.00 0.00 0.00 24 1016.0
20260506205419 76 264 1.0 1.0 0.00 0.00 0.00 24 1016.1
20260506204440 75 255 1.0 1.0 0.00 0.00 0.00 22 1016.2
20260506203420 75 266 1.0 1.0 0.00 0.00 0.00 24 1016.3
20260506202420 74 270 1.0 1.0 0.00 0.00 0.00 24 1016.4
20260506201420 74 246 0.0 1.0 0.00 0.00 0.00 26 1016.5
20260506200420 74 254 2.0 3.0 0.00 0.00 0.00 25 1016.6